Weather reports worldwide

Advertisment
Butte, mt, United States of America (2074306): temperature & dewpoint: 11.08.2019 19:00:00 - 17.08.2019 19:00:00 (MDT)Butte, mt, United States of America (2074306): wind speed & gusts: 11.08.2019 19:00:00 - 17.08.2019 19:00:00 (MDT)Butte, mt, United States of America (2074306): wind direction: 11.08.2019 19:00:00 - 17.08.2019 19:00:00 (MDT)Butte, mt, United States of America (2074306): reduced air pressure: 11.08.2019 19:00:00 - 17.08.2019 19:00:00 (MDT)Butte, mt, United States of America (2074306): visibility: 11.08.2019 19:00:00 - 17.08.2019 19:00:00 (MDT)Butte, mt, United States of America (2074306): precipitation: 11.08.2019 19:00:00 - 17.08.2019 19:00:00 (MDT)
Date & Time tt [°C] td [°C] ff [km/h] ff [kn] fx [km/h] fx [kn] dd ppp [hPa] vv [km] rr [mm]
17.08.2019 19:00:00 19,4 4,4 21 11 - - NNW 1009,7 16 -
17.08.2019 18:00:00 19,4 4,4 15 8 - - NNW 1009,7 16 -
17.08.2019 17:00:00 18,9 5,6 18 10 - - WNW 1009,7 16 -
17.08.2019 16:00:00 17,8 6,1 18 10 - - W 1010,0 16 -
17.08.2019 15:00:00 18,9 5,0 22 12 - - NNW 1010,1 16 -
17.08.2019 14:00:00 18,9 5,0 22 12 - - WNW 1009,2 16 -
17.08.2019 13:00:00 18,9 5,0 - - - - - 1008,9 16 -
17.08.2019 12:00:00 18,9 4,4 9 5 - - WNW 1008,9 16 -
17.08.2019 11:00:00 17,2 5,6 15 8 - - NW 1009,0 16 -
17.08.2019 10:00:00 16,7 5,6 11 6 - - NW 1008,9 16 -
17.08.2019 09:00:00 14,4 7,2 0 0 - - N 1009,5 16 -
17.08.2019 08:00:00 11,7 6,1 0 0 - - N 1009,6 16 -
17.08.2019 07:00:00 10,6 6,1 0 0 - - N 1009,4 16 -
17.08.2019 06:00:00 11,7 6,7 0 0 - - N 1008,8 16 -
17.08.2019 05:00:00 11,7 6,7 0 0 - - N 1008,6 16 -
17.08.2019 04:00:00 12,8 6,7 9 5 - - SSE 1008,6 16 -
17.08.2019 03:00:00 12,8 6,7 0 0 - - N 1009,4 16 -
17.08.2019 02:00:00 13,9 6,1 0 0 - - N 1010,1 16 -
17.08.2019 01:00:00 15,0 6,1 8 4 - - SSE 1010,6 16 -
17.08.2019 00:00:00 16,7 5,0 9 5 - - W 1010,5 16 -
16.08.2019 23:00:00 16,7 5,0 8 4 - - WNW 1010,5 16 -
16.08.2019 22:00:00 18,3 4,4 21 11 - - NW 1011,1 10 -
16.08.2019 21:00:00 19,4 3,9 16 9 - - NNW 1011,2 16 -
16.08.2019 20:00:00 21,1 2,2 18 10 - - NNW 1011,4 16 -
16.08.2019 19:00:00 21,7 2,2 21 11 - - NW 1011,6 16 -
16.08.2019 18:00:00 22,8 2,2 18 10 - - NW 1011,4 16 -
16.08.2019 17:00:00 23,3 1,7 18 10 - - W 1011,5 16 -
16.08.2019 16:00:00 22,8 1,7 15 8 - - NW 1012,1 16 -
16.08.2019 15:00:00 22,8 2,8 22 12 - - NW 1012,4 16 -
16.08.2019 14:00:00 21,1 3,9 15 8 - - SW 1013,5 16 -
16.08.2019 13:00:00 20,0 3,3 0 0 - - N 1014,2 16 -
16.08.2019 12:00:00 20,0 3,9 13 7 - - NW 1014,6 16 -
16.08.2019 11:00:00 18,9 6,1 0 0 - - N 1015,4 16 -
16.08.2019 10:00:00 14,4 6,7 0 0 - - N 1016,5 16 -
16.08.2019 09:00:00 10,6 6,1 0 0 - - N 1017,1 16 -
16.08.2019 08:00:00 6,1 3,9 0 0 - - N 1017,7 16 -
16.08.2019 07:00:00 4,4 2,8 0 0 - - N 1017,6 16 -
16.08.2019 06:00:00 5,0 2,8 5 3 - - ESE 1017,8 16 -
16.08.2019 05:00:00 5,0 3,3 8 4 - - SE 1016,5 16 -
16.08.2019 04:00:00 6,1 3,9 5 3 - - SE 1016,6 16 -
16.08.2019 03:00:00 7,2 5,0 8 4 - - SE 1016,8 16 -
16.08.2019 02:00:00 7,8 5,6 0 0 - - N 1016,8 16 -
16.08.2019 01:00:00 8,3 6,1 8 4 - - SSE 1017,1 16 -
16.08.2019 00:00:00 10,0 6,1 0 0 - - N 1016,9 16 -
15.08.2019 23:00:00 10,6 7,2 0 0 - - N 1017,4 16 -
15.08.2019 22:00:00 12,2 8,3 5 3 - - - 1017,9 16 -
15.08.2019 21:00:00 14,4 7,2 8 4 - - NW 1017,9 16 -
15.08.2019 20:00:00 15,6 8,3 13 7 - - WSW 1018,3 16 -
15.08.2019 19:00:00 17,2 6,1 11 6 - - N 1018,9 16 0,0
15.08.2019 18:00:00 15,6 7,2 16 9 68 37 NNE 1019,6 16 0,0
15.08.2019 17:00:00 22,8 3,9 13 7 - - ENE 1015,0 16 -
15.08.2019 16:00:00 22,8 4,4 11 6 - - - 1015,9 16 -
15.08.2019 15:00:00 21,1 4,4 21 11 - - NNW 1017,0 16 -
15.08.2019 14:00:00 22,8 3,9 11 6 - - NNW 1016,7 16 -
15.08.2019 13:00:00 22,8 3,9 - - - - - 1017,3 16 -
15.08.2019 12:00:00 21,7 4,4 11 6 - - - 1018,4 16 -
15.08.2019 11:00:00 19,4 4,4 8 4 - - N 1018,7 16 -
15.08.2019 10:00:00 15,6 6,1 0 0 - - N 1019,3 16 -
15.08.2019 09:00:00 12,2 5,6 0 0 - - N 1019,9 16 -
15.08.2019 08:00:00 10,0 4,4 0 0 - - N 1020,0 16 -
15.08.2019 07:00:00 8,9 4,4 0 0 - - N 1019,9 16 -
15.08.2019 06:00:00 8,9 5,0 9 5 - - SE 1019,8 16 -
15.08.2019 05:00:00 11,1 5,0 5 3 - - S 1019,3 16 -
15.08.2019 04:00:00 11,7 5,6 5 3 - - S 1018,6 16 -
15.08.2019 03:00:00 12,2 5,6 0 0 - - N 1019,0 16 -
15.08.2019 02:00:00 12,8 5,6 8 4 - - E 1018,7 16 -
15.08.2019 01:00:00 14,4 5,0 8 4 - - SSE 1018,6 16 -
15.08.2019 00:00:00 15,0 6,1 5 3 - - SE 1018,7 16 -
14.08.2019 23:00:00 17,8 3,9 5 3 - - W 1018,7 16 -
14.08.2019 22:00:00 19,4 2,8 11 6 - - NW 1018,8 16 -
14.08.2019 21:00:00 21,7 1,7 15 8 - - NW 1018,3 16 -
14.08.2019 20:00:00 23,3 3,3 16 9 - - NW 1018,3 16 -
14.08.2019 19:00:00 23,9 2,8 22 12 - - NW 1018,1 16 -
14.08.2019 18:00:00 23,9 3,9 16 9 - - NW 1018,5 16 -
14.08.2019 17:00:00 24,4 3,9 18 10 - - WNW 1018,4 16 -
14.08.2019 16:00:00 24,4 5,0 15 8 - - WNW 1018,6 16 -
14.08.2019 15:00:00 23,9 4,4 18 10 - - NW 1018,9 16 -
14.08.2019 14:00:00 25,0 3,9 16 9 - - W 1018,7 16 -
14.08.2019 13:00:00 23,9 3,3 9 5 - - NE 1019,5 16 -
14.08.2019 12:00:00 22,8 5,0 9 5 - - NNE 1019,9 16 -
14.08.2019 11:00:00 20,0 5,0 0 0 - - N 1020,6 16 -
14.08.2019 10:00:00 16,1 6,1 9 5 - - NE 1021,2 16 -
14.08.2019 09:00:00 12,2 6,1 5 3 - - SE 1021,6 16 -
14.08.2019 08:00:00 7,2 4,4 0 0 - - N 1021,9 16 -
14.08.2019 07:00:00 6,7 3,9 0 0 - - N 1021,8 16 -
14.08.2019 06:00:00 7,2 4,4 0 0 - - N 1021,2 16 -
14.08.2019 05:00:00 7,2 3,9 9 5 - - ESE 1021,0 16 -
14.08.2019 04:00:00 7,8 4,4 8 4 - - SE 1021,0 16 -
14.08.2019 03:00:00 8,3 5,0 9 5 - - SE 1021,2 16 -
14.08.2019 02:00:00 10,6 5,6 5 3 - - SE 1021,4 16 -
14.08.2019 01:00:00 10,0 6,1 9 5 - - SE 1021,8 16 -
14.08.2019 00:00:00 12,2 6,7 0 0 - - N 1021,7 16 -
13.08.2019 23:00:00 13,9 6,7 9 5 - - ESE 1021,6 16 -
13.08.2019 22:00:00 17,2 8,3 9 5 - - E 1020,9 16 -
13.08.2019 21:00:00 20,0 5,0 9 5 - - WNW 1020,5 16 -
13.08.2019 20:00:00 23,3 2,2 13 7 - - NW 1019,9 16 -
13.08.2019 19:00:00 24,4 2,8 16 9 - - WNW 1019,7 16 -
13.08.2019 18:00:00 25,6 2,2 18 10 - - WNW 1019,4 16 -
13.08.2019 17:00:00 25,6 2,2 8 4 - - - 1019,4 16 -
13.08.2019 16:00:00 25,0 3,3 9 5 - - NNW 1019,4 16 -
13.08.2019 15:00:00 23,3 3,9 5 3 - - - 1020,1 16 -
13.08.2019 14:00:00 22,8 4,4 - - - - - 1020,4 16 -
13.08.2019 13:00:00 21,7 4,4 8 4 - - N 1020,8 16 -
13.08.2019 12:00:00 20,0 5,6 9 5 - - N 1021,3 16 -
13.08.2019 11:00:00 17,2 6,7 8 4 - - NNW 1021,7 16 -
13.08.2019 10:00:00 14,4 6,7 0 0 - - N 1021,7 16 -
13.08.2019 09:00:00 10,0 6,1 0 0 - - N 1022,4 16 -
13.08.2019 08:00:00 7,2 5,0 0 0 - - N 1022,6 16 -
13.08.2019 07:00:00 5,6 3,3 5 3 - - SE 1022,5 16 -
13.08.2019 06:00:00 5,0 3,3 9 5 - - SE 1022,6 16 -
13.08.2019 05:00:00 6,7 4,4 5 3 - - SSE 1022,4 16 -
13.08.2019 04:00:00 6,7 4,4 9 5 - - SSE 1022,3 16 -
13.08.2019 03:00:00 6,7 4,4 9 5 - - SE 1022,5 16 -
13.08.2019 02:00:00 8,3 5,0 8 4 - - SSE 1022,4 16 -
13.08.2019 01:00:00 8,9 5,0 9 5 - - ESE 1022,3 16 -
13.08.2019 00:00:00 10,0 5,6 11 6 - - S 1022,0 16 -
12.08.2019 23:00:00 11,7 6,1 0 0 - - N 1021,2 16 -
12.08.2019 22:00:00 15,6 5,0 8 4 - - N 1020,2 16 -
12.08.2019 21:00:00 17,2 5,0 9 5 - - NNW 1019,4 16 -
12.08.2019 20:00:00 19,4 3,3 22 12 - - NNW 1019,3 16 -
12.08.2019 19:00:00 20,6 3,9 13 7 - - NW 1019,4 16 -
12.08.2019 18:00:00 20,6 3,9 22 12 - - NNW 1019,3 16 -
12.08.2019 17:00:00 20,0 3,3 11 6 - - - 1018,9 16 -
12.08.2019 16:00:00 20,0 3,9 13 7 - - NW 1019,2 16 -
12.08.2019 15:00:00 18,3 3,9 15 8 - - NW 1019,6 16 -
12.08.2019 14:00:00 18,3 3,9 15 8 - - WNW 1019,8 16 -
12.08.2019 13:00:00 17,2 4,4 21 11 - - NNW 1020,3 16 -
12.08.2019 12:00:00 16,7 4,4 13 7 - - NW 1020,6 16 -
12.08.2019 11:00:00 16,1 5,6 9 5 - - N 1021,0 16 -
12.08.2019 10:00:00 13,9 5,6 8 4 - - NE 1020,7 16 -
12.08.2019 09:00:00 12,8 6,7 0 0 - - N 1020,6 16 -
12.08.2019 08:00:00 8,9 6,1 0 0 - - N 1020,9 16 -
12.08.2019 07:00:00 7,2 5,0 5 3 - - ESE 1021,1 16 -
12.08.2019 06:00:00 8,3 6,1 5 3 - - SSE 1020,1 16 -
12.08.2019 05:00:00 10,6 7,2 5 3 - - NNE 1019,3 16 -
12.08.2019 04:00:00 10,6 7,2 0 0 - - N 1019,3 16 -
12.08.2019 03:00:00 11,1 7,2 0 0 - - N 1019,6 16 -
12.08.2019 02:00:00 11,1 6,7 0 0 - - N 1019,2 16 -
12.08.2019 01:00:00 10,6 7,2 0 0 - - N 1019,9 16 -
12.08.2019 00:00:00 10,6 6,1 0 0 - - N 1018,8 16 -
11.08.2019 23:00:00 9,4 6,1 0 0 - - N 1019,1 16 -
11.08.2019 22:00:00 10,0 6,1 5 3 - - WSW 1018,8 16 -
11.08.2019 21:00:00 12,8 5,6 5 3 - - NW 1017,8 16 -
11.08.2019 20:00:00 13,9 5,0 16 9 - - NNW 1017,4 16 -
11.08.2019 19:00:00 13,9 6,1 11 6 - - NW 1017,2 16 -

tt = temperature
td = dewpoint
ff = wind speed
fx = gusts
dd = wind direction
ppp = reduced air pressure
vv = visibility
rr = precipitation

Next stations